Wind_Speed
35 36 37 36 36 36 37 37 37 37 38 38 38 38 37 38 38 38 37 37 37 37 37 37 37 37 36 36 36 36 36 36 36 35 35 35 34 34 34 34 34 34 34
36 36 37 38 38 38 38 38 38 38 38 39 39 40 40 40 40 40 40 40 39 39 39 39 39 38 38 38 38 38 38 38 38 38 37 37 37 37 37 37 37 37 36
36 36 37 38 39 40 40 39 39 39 39 39 39 40 40 40 40 41 41 41 41 40 40 39 40 40 40 40 39 40 40 40 40 40 40 40 40 40 40 40 40 40 40
37 38 38 39 40 41 41 41 41 40 39 38 39 39 40 41 42 42 43 43 42 41 41 41 41 41 41 40 40 41 41 42 42 43 43 42 41 42 42 42 42 42 42
39 40 40 41 41 42 42 42 42 41 40 40 40 40 41 41 42 42 43 43 43 42 42 42 42 42 42 42 42 42 42 43 43 44 44 44 43 43 43 44 43 43 43
42 42 42 43 43 43 44 43 42 42 42 42 42 42 42 41 41 41 41 41 41 42 42 42 42 42 43 43 43 44 44 44 44 45 45 45 44 44 44 44 44 44 44
44 44 44 44 44 44 44 44 43 43 43 43 43 42 43 43 42 42 42 42 41 41 42 42 43 43 43 44 45 45 45 46 46 45 45 45 45 45 44 44 45 45 45
45 45 44 44 45 45 45 44 44 44 43 43 43 43 43 43 43 43 42 42 42 42 43 44 44 44 45 45 46 46 46 46 46 46 46 46 46 46 46 46 46 47 47
44 44 44 44 44 44 43 44 44 44 43 44 44 44 43 44 44 43 43 43 43 43 44 44 45 45 46 46 46 47 46 47 47 47 47 48 48 48 48 48 48 49 49
43 44 44 44 44 43 43 43 44 45 45 45 45 44 44 44 44 43 43 43 44 44 45 45 46 46 47 47 47 47 47 48 48 48 48 49 50 50 50 49 49 50 50
43 43 43 43 42 42 42 42 43 44 45 45 45 44 44 44 44 44 43 43 44 44 45 46 46 47 48 48 48 49 49 49 49 49 50 50 51 51 51 51 50 50 50
42 42 42 41 41 42 42 42 43 44 44 45 45 45 44 44 44 44 43 43 43 44 44 45 46 47 48 49 50 50 50 50 50 51 51 51 52 52 52 52 51 51 52
41 42 42 42 42 42 43 43 44 44 44 44 44 44 44 44 44 44 44 44 44 44 45 45 46 47 48 48 49 50 51 51 51 52 52 52 52 52 52 53 52 52 52
41 41 42 42 42 42 43 43 44 44 44 44 45 45 45 45 44 44 45 45 45 45 45 46 47 48 49 50 50 51 52 53 53 53 53 52 52 52 52 53 53 52 52
42 41 41 42 43 43 43 43 43 44 45 44 44 44 45 45 45 45 45 46 47 46 47 47 48 49 50 51 52 52 53 54 54 54 53 53 53 53 53 53 53 54 53
42 42 43 43 43 42 43 43 43 44 44 43 44 44 44 44 45 45 45 46 47 48 48 49 49 50 51 52 52 52 52 52 53 53 53 54 54 54 53 54 54 53 53
43 42 43 43 43 43 42 42 42 43 43 43 44 44 44 44 45 45 46 47 47 48 48 48 49 50 50 50 50 51 51 51 52 53 53 53 54 54 54 53 53 53 54
43 43 43 42 42 42 41 41 41 42 41 41 42 43 43 44 44 45 45 46 46 47 47 46 47 48 47 47 48 49 50 50 51 51 52 52 53 53 53 53 53 53 54
42 42 42 41 41 41 41 40 40 41 41 40 41 41 42 42 43 43 43 44 45 46 47 47 46 46 47 47 48 49 48 48 49 49 50 51 52 52 52 53 53 53 54
41 41 41 41 41 41 41 41 41 40 40 40 41 41 41 42 42 42 43 44 45 46 47 47 46 46 47 47 47 47 47 48 48 48 49 50 50 50 51 52 52 52 52
41 41 41 40 40 41 40 40 40 40 40 41 41 41 41 41 42 42 42 43 44 45 45 45 45 45 45 45 46 46 46 47 46 46 46 47 48 48 48 49 49 50 50
41 41 40 40 40 40 40 40 39 39 39 39 39 40 40 40 41 42 43 43 43 43 43 43 44 44 44 44 45 44 44 45 44 44 44 44 45 45 46 46 47 47 48
39 39 39 39 39 39 38 38 39 38 37 37 38 39 40 40 41 42 42 42 43 42 42 42 42 42 43 43 44 43 43 43 43 42 42 42 43 43 44 44 45 46 47
39 39 38 38 38 38 38 38 38 37 37 37 37 37 38 40 40 41 41 42 42 42 42 42 42 42 42 42 42 42 42 42 42 42 43 42 43 43 43 43 44 45 45
38 38 38 38 37 37 37 38 37 36 35 35 36 37 38 39 40 40 41 41 41 42 42 42 42 42 41 41 41 42 42 42 42 42 43 43 43 43 42 42 43 44 44
37 37 37 36 36 35 35 35 35 35 35 35 36 37 38 39 39 40 40 40 41 41 41 42 42 42 41 41 42 42 42 42 42 41 42 42 42 42 41 41 42 42 42
Wind_Direction
268 269 269 268 267 267 269 269 270 268 268 267 267 267 268 268 267 267 268 268 268 268 269 269 269 269 269 269 269 268 269 269 268 268 269 269 269 269 269 270 270 271 271
269 270 269 268 269 269 270 270 270 270 269 268 267 266 267 268 267 268 268 268 268 268 268 269 269 269 269 269 268 268 268 268 268 268 269 269 268 269 268 269 270 270 270
269 269 269 269 270 270 271 271 271 269 269 269 268 268 268 268 268 268 268 268 269 268 268 268 269 270 269 269 268 268 268 267 267 268 269 269 268 268 268 269 269 270 270
268 269 270 271 271 272 272 272 271 269 269 269 269 270 270 270 269 268 268 268 268 268 268 268 269 269 269 269 269 269 269 268 268 268 268 269 268 268 268 268 269 269 270
270 271 272 273 272 272 273 272 272 270 268 268 269 271 272 272 269 268 268 268 268 268 269 268 268 268 268 268 269 270 270 270 270 270 269 269 268 268 269 269 269 269 269
270 271 272 272 273 273 272 272 270 268 267 267 269 270 271 272 270 269 268 268 268 268 268 269 268 268 268 269 269 270 271 270 270 270 269 268 267 268 268 269 269 269 269
271 272 272 272 273 273 272 271 270 268 267 267 268 269 271 271 270 270 270 269 269 268 268 268 268 268 269 269 269 270 270 271 270 270 269 268 268 267 267 268 269 269 269
271 272 273 274 274 274 272 271 271 269 269 268 269 269 270 270 270 270 270 269 269 270 269 268 267 268 269 269 269 269 270 270 270 270 269 268 268 268 268 268 268 269 269
270 272 273 274 274 274 272 272 271 269 269 270 270 270 269 269 269 269 269 269 269 270 270 269 269 269 269 269 269 269 270 270 270 269 269 269 268 269 269 268 269 269 269
271 272 273 274 274 273 273 272 271 269 269 270 269 269 269 269 269 268 268 270 270 271 271 271 270 270 270 270 270 270 270 270 270 270 271 270 269 269 268 268 269 269 269
273 273 274 274 274 273 273 273 272 270 269 269 268 269 270 269 269 269 269 270 271 272 272 272 272 271 270 270 270 271 271 271 271 271 271 271 270 269 268 268 269 269 270
272 273 273 273 273 273 273 274 273 271 268 268 269 270 271 270 270 269 270 271 272 272 273 274 273 272 271 271 271 271 271 271 271 271 271 271 271 270 269 268 269 270 270
272 273 273 272 272 272 273 273 273 270 269 269 270 271 271 270 270 270 271 271 271 272 273 274 274 274 273 273 272 271 271 271 271 271 271 271 271 271 270 269 269 270 270
272 273 272 272 272 272 273 273 273 271 270 270 271 270 270 270 270 271 271 271 271 272 273 274 275 275 275 275 274 272 271 272 272 271 271 271 271 271 270 270 269 269 269
271 271 271 271 272 272 272 273 272 272 270 270 270 271 271 270 271 271 272 272 272 272 273 274 275 276 277 276 275 274 273 272 272 271 272 272 271 271 270 269 268 268 269
270 270 270 271 272 271 271 272 272 272 270 270 270 271 272 271 271 272 272 273 273 274 273 274 275 276 278 278 276 275 274 273 273 272 272 272 271 271 270 269 268 268 268
271 271 271 271 271 271 271 272 272 273 272 270 270 271 271 272 273 273 273 274 274 275 275 276 277 278 278 279 278 276 275 275 275 274 273 272 271 269 269 268 268 267 267
270 270 270 270 270 269 270 271 271 272 272 272 272 272 272 272 273 273 274 275 275 276 277 278 278 279 279 279 279 278 277 277 277 275 274 273 271 269 268 267 267 267 267
270 269 269 269 269 269 270 271 272 272 271 272 273 272 273 273 275 275 275 275 276 276 277 278 278 279 280 280 280 279 278 278 278 277 275 273 272 270 268 268 268 268 267
270 270 270 269 268 269 270 270 272 272 272 272 273 273 273 273 275 275 275 276 276 277 278 278 279 280 280 280 280 279 278 279 279 278 276 275 273 271 270 269 269 269 269
271 271 270 270 268 268 269 270 271 273 273 273 273 274 274 274 274 275 276 277 277 278 278 278 280 280 280 279 280 280 279 280 279 278 277 276 275 273 272 271 270 270 270
271 271 270 269 269 268 269 270 271 273 274 274 274 275 276 277 276 275 275 277 278 280 279 280 281 281 280 280 281 281 281 280 279 278 277 278 277 276 274 273 271 270 270
271 271 270 270 270 269 269 269 271 272 273 274 275 276 276 277 277 277 276 278 279 280 281 282 282 282 281 281 282 283 282 281 280 279 279 279 278 278 276 275 273 272 271
271 270 270 270 270 270 269 270 271 271 273 274 275 276 277 278 279 278 277 278 280 281 282 282 284 284 283 282 282 282 282 281 281 282 282 280 279 279 277 276 276 275 273
270 270 270 270 269 270 271 271 271 272 273 275 276 276 278 279 280 280 279 279 280 281 282 283 285 285 284 283 282 282 283 282 282 283 282 282 280 278 277 278 278 277 275
269 269 269 270 270 270 271 271 271 272 274 275 276 277 278 279 280 281 282 282 282 282 283 284 284 284 284 283 283 283 283 283 283 282 282 282 280 278 277 277 277 276 275
Height
5797 5797 5797 5796 5796 5795 5795 5794 5793 5793 5792 5792 5792 5791 5791 5791 5791 5791 5791 5791 5792 5792 5792 5792 5792 5792 5792 5792 5792 5792 5791 5791 5791 5791 5791 5791 5790 5790 5790 5789 5789 5788 5788
5789 5788 5788 5788 5787 5786 5786 5785 5784 5783 5783 5782 5782 5782 5782 5781 5782 5782 5782 5782 5782 5782 5782 5782 5782 5783 5783 5783 5782 5783 5782 5782 5782 5782 5782 5782 5782 5781 5781 5781 5780 5780 5779
5780 5780 5779 5779 5778 5777 5776 5775 5774 5773 5772 5772 5771 5771 5771 5771 5771 5771 5772 5772 5772 5772 5772 5772 5772 5773 5773 5773 5773 5773 5773 5773 5772 5772 5772 5772 5772 5772 5771 5771 5771 5770 5770
5771 5771 5770 5770 5769 5767 5766 5765 5764 5763 5762 5761 5761 5761 5760 5760 5760 5760 5760 5761 5761 5762 5762 5762 5762 5763 5763 5763 5763 5763 5763 5762 5762 5762 5762 5762 5762 5762 5761 5761 5761 5760 5760
5762 5761 5760 5759 5758 5757 5756 5754 5753 5753 5752 5752 5751 5750 5750 5749 5749 5749 5750 5750 5751 5751 5752 5752 5752 5752 5752 5752 5752 5752 5752 5752 5752 5751 5751 5751 5751 5751 5751 5750 5750 5750 5749
5752 5751 5750 5749 5747 5746 5745 5743 5742 5741 5741 5741 5741 5740 5739 5739 5739 5739 5739 5739 5740 5741 5741 5741 5742 5742 5742 5742 5742 5741 5741 5741 5741 5740 5740 5740 5740 5740 5740 5739 5739 5739 5738
5741 5740 5739 5737 5736 5735 5733 5732 5731 5730 5730 5730 5730 5730 5729 5728 5728 5728 5729 5729 5729 5730 5730 5730 5731 5731 5731 5731 5730 5730 5730 5730 5729 5729 5729 5729 5729 5728 5728 5728 5728 5727 5727
5730 5729 5728 5726 5725 5723 5722 5721 5720 5720 5719 5719 5720 5719 5719 5719 5718 5718 5718 5718 5718 5719 5719 5719 5719 5719 5719 5719 5719 5719 5718 5718 5717 5717 5717 5717 5717 5717 5716 5716 5716 5715 5715
5719 5718 5717 5715 5713 5712 5710 5710 5709 5709 5709 5708 5708 5708 5708 5708 5708 5708 5708 5708 5708 5708 5708 5707 5707 5707 5707 5707 5707 5706 5706 5705 5705 5705 5704 5704 5704 5704 5704 5703 5703 5703 5702
5708 5707 5705 5704 5702 5700 5699 5698 5698 5697 5697 5697 5697 5697 5697 5697 5697 5698 5698 5697 5697 5696 5696 5695 5695 5695 5694 5694 5694 5694 5693 5693 5692 5692 5691 5691 5691 5690 5690 5690 5690 5689 5689
5697 5696 5694 5693 5691 5690 5689 5687 5686 5686 5686 5686 5686 5686 5685 5685 5685 5686 5687 5687 5686 5685 5684 5683 5683 5682 5682 5682 5681 5681 5680 5680 5679 5679 5678 5677 5677 5676 5676 5676 5676 5676 5675
5686 5685 5683 5682 5681 5680 5678 5677 5676 5675 5675 5675 5675 5675 5674 5674 5674 5674 5675 5675 5675 5674 5673 5672 5671 5670 5669 5668 5668 5668 5667 5666 5666 5665 5664 5663 5663 5662 5662 5662 5661 5661 5661
5675 5674 5672 5671 5670 5669 5668 5667 5666 5665 5664 5664 5664 5664 5663 5663 5663 5663 5663 5663 5663 5663 5661 5660 5658 5657 5656 5655 5654 5654 5653 5653 5652 5651 5650 5649 5648 5648 5647 5647 5646 5646 5645
5664 5662 5661 5661 5659 5658 5657 5656 5655 5654 5654 5654 5653 5653 5652 5652 5651 5651 5651 5651 5651 5651 5649 5648 5646 5644 5643 5641 5640 5639 5639 5638 5637 5636 5636 5635 5634 5633 5632 5631 5631 5630 5630
5652 5652 5650 5650 5648 5647 5646 5645 5644 5644 5644 5643 5643 5642 5642 5641 5640 5640 5639 5639 5639 5638 5638 5636 5634 5632 5629 5628 5626 5625 5624 5623 5622 5621 5620 5619 5618 5617 5617 5616 5615 5615 5614
5641 5640 5640 5639 5637 5636 5635 5635 5634 5633 5633 5632 5632 5631 5631 5630 5629 5628 5627 5626 5625 5624 5624 5623 5621 5618 5616 5614 5611 5610 5609 5608 5606 5605 5604 5603 5602 5601 5601 5600 5600 5599 5599
5630 5629 5628 5628 5627 5626 5625 5624 5623 5622 5622 5621 5621 5621 5620 5619 5618 5616 5615 5614 5613 5611 5610 5610 5608 5605 5602 5600 5598 5596 5594 5593 5591 5589 5588 5587 5586 5585 5585 5584 5584 5584 5584
5618 5618 5617 5616 5615 5615 5614 5613 5612 5611 5610 5610 5610 5609 5608 5607 5606 5605 5603 5602 5601 5599 5598 5597 5595 5592 5590 5587 5585 5583 5581 5578 5576 5574 5573 5571 5570 5569 5569 5569 5569 5568 5568
5607 5606 5605 5605 5604 5603 5603 5602 5601 5601 5600 5599 5599 5598 5597 5596 5595 5594 5592 5591 5589 5587 5586 5584 5583 5580 5577 5574 5572 5570 5567 5565 5562 5560 5558 5556 5555 5554 5554 5553 5553 5552 5552
5596 5595 5594 5593 5593 5592 5592 5591 5591 5590 5590 5589 5588 5587 5586 5585 5584 5582 5581 5579 5577 5576 5574 5572 5570 5567 5565 5562 5559 5557 5555 5552 5549 5546 5543 5541 5540 5539 5538 5538 5538 5537 5536
5584 5584 5583 5582 5581 5581 5581 5580 5580 5579 5579 5578 5577 5576 5575 5574 5572 5571 5569 5568 5566 5563 5561 5559 5557 5555 5552 5549 5547 5544 5542 5539 5536 5533 5531 5528 5527 5525 5524 5522 5522 5521 5521
5573 5573 5572 5571 5571 5570 5570 5569 5569 5569 5568 5568 5566 5565 5564 5562 5561 5559 5558 5556 5554 5552 5549 5547 5545 5542 5539 5536 5534 5531 5528 5526 5525 5523 5519 5516 5513 5512 5510 5509 5508 5507 5506
5563 5562 5561 5561 5560 5560 5559 5559 5558 5558 5557 5557 5555 5554 5553 5551 5549 5547 5546 5544 5542 5539 5537 5535 5532 5529 5527 5524 5521 5518 5515 5512 5511 5509 5506 5504 5501 5499 5497 5495 5494 5493 5493
5552 5551 5551 5550 5550 5549 5549 5548 5548 5547 5546 5546 5544 5543 5542 5540 5537 5536 5534 5532 5530 5527 5525 5523 5520 5517 5514 5511 5508 5505 5502 5500 5498 5496 5492 5491 5489 5487 5485 5483 5481 5480 5479
5541 5540 5540 5540 5540 5539 5538 5537 5537 5536 5536 5535 5534 5532 5531 5529 5526 5524 5523 5521 5518 5515 5512 5510 5507 5504 5501 5498 5495 5493 5490 5488 5487 5484 5480 5478 5477 5475 5474 5471 5469 5466 5465
5531 5530 5530 5530 5529 5529 5528 5527 5526 5526 5525 5524 5523 5522 5520 5517 5515 5513 5510 5508 5506 5503 5500 5498 5495 5492 5489 5486 5483 5480 5478 5475 5473 5472 5469 5466 5464 5462 5462 5461 5457 5455 5453